DW1105 Weather Reports


Display with metric or nautical units.
time (UTC)temp
F
wind
direction
speed
MPH
gust
MPH
rain 1hr
in
rain 24hr
in
rain mn
in
humidity
%
barometer
mb
20210805005711 70 309 0.0 0.0 0.00 0.00 0.00 78 1020.0
20210805005211 70 309 0.0 0.0 0.00 0.00 0.00 78 1020.1
20210805004718 70 309 0.0 0.0 0.00 0.00 0.00 77 1020.1
20210805004215 70 309 0.0 0.0 0.00 0.00 0.00 77 1020.0
20210805003713 71 309 0.0 0.0 0.00 0.00 0.00 77 1019.9
20210805003220 71 309 0.0 0.0 0.00 0.00 0.00 77 1019.9
20210805002716 71 309 0.0 0.0 0.00 0.00 0.00 76 1019.8
20210805002216 71 309 0.0 0.0 0.00 0.00 0.00 76 1019.8
20210805001718 71 309 0.0 0.0 0.00 0.00 0.00 76 1019.9
20210805001213 71 309 0.0 0.0 0.00 0.00 0.00 76 1019.9
20210805000720 71 309 0.0 0.0 0.00 0.00 0.00 75 1019.8
20210805000211 71 309 0.0 0.0 0.00 0.00 0.00 74 1019.8
20210804235718 71 309 0.0 0.0 0.00 0.00 0.00 74 1019.8
20210804235214 71 309 0.0 0.0 0.00 0.00 0.00 73 1020.0
20210804234712 71 309 0.0 0.0 0.00 0.00 0.00 73 1020.2
20210804234210 72 309 0.0 0.0 0.00 0.00 0.00 71 1020.1
20210804233711 72 309 0.0 0.0 0.00 0.00 0.00 70 1019.9
20210804233218 72 309 0.0 0.0 0.00 0.00 0.00 70 1019.9
20210804232716 72 309 0.0 0.0 0.00 0.00 0.00 69 1019.8
20210804232213 72 309 0.0 0.0 0.00 0.00 0.00 68 1019.9
20210804231723 72 309 0.0 0.0 0.00 0.00 0.00 68 1019.9
20210804231213 72 308 0.0 0.0 0.00 0.00 0.00 67 1019.7
20210804230720 72 307 0.0 0.0 0.00 0.00 0.00 68 1019.7
20210804230217 72 307 0.0 0.0 0.00 0.00 0.00 66 1019.9
20210804225715 72 307 0.0 0.0 0.00 0.00 0.00 65 1019.8
20210804225215 72 307 0.0 0.0 0.00 0.00 0.00 65 1019.8
20210804224712 73 307 0.0 0.0 0.00 0.00 0.00 67 1019.8
20210804224210 73 307 0.0 0.0 0.00 0.00 0.00 66 1019.8
20210804223717 73 307 0.0 0.0 0.00 0.00 0.00 66 1019.8
20210804223214 73 307 0.0 0.0 0.00 0.00 0.00 64 1019.8
20210804222715 73 307 0.0 0.0 0.00 0.00 0.00 63 1019.8
20210804222213 73 307 0.0 0.0 0.00 0.00 0.00 64 1019.8
20210804221720 73 306 0.0 0.0 0.00 0.00 0.00 64 1019.7
20210804221216 73 306 0.0 0.0 0.00 0.00 0.00 61 1019.7
20210804220724 73 302 0.0 0.0 0.00 0.00 0.00 63 1019.7
20210804220215 73 302 0.0 0.0 0.00 0.00 0.00 65 1019.7
20210804215712 73 302 0.0 4.0 0.00 0.00 0.00 66 1019.6
20210804215210 73 300 0.0 4.0 0.00 0.00 0.00 65 1019.6
20210804214717 73 239 0.0 1.0 0.00 0.00 0.00 64 1019.5
20210804214214 73 182 0.0 0.0 0.00 0.00 0.00 64 1019.6
20210804213715 73 182 0.0 0.0 0.00 0.00 0.00 63 1019.5
20210804213213 73 182 0.0 0.0 0.00 0.00 0.00 60 1019.7
20210804212710 73 184 0.0 0.0 0.00 0.00 0.00 61 1019.6
20210804212212 73 184 0.0 0.0 0.00 0.00 0.00 64 1019.7
20210804211719 73 184 0.0 0.0 0.00 0.00 0.00 64 1019.7
20210804211219 74 184 0.0 0.0 0.00 0.00 0.00 65 1019.8
20210804210716 74 184 0.0 0.0 0.00 0.00 0.00 63 1019.8
20210804210214 74 184 0.0 0.0 0.00 0.00 0.00 64 1019.9
20210804205711 74 184 0.0 1.0 0.00 0.00 0.00 65 1019.7
20210804205221 75 184 0.0 4.0 0.00 0.00 0.00 61 1019.7
20210804204711 75 184 0.0 4.0 0.00 0.00 0.00 60 1019.7
20210804204217 76 188 0.0 4.0 0.00 0.00 0.00 61 1019.8
20210804203715 76 5 0.0 1.0 0.00 0.00 0.00 61 1019.8
20210804203213 75 5 0.0 1.0 0.00 0.00 0.00 66 1019.8
20210804202713 74 355 0.0 0.0 0.00 0.00 0.00 66 1019.7
20210804202220 74 355 0.0 0.0 0.00 0.00 0.00 66 1019.8
20210804201717 74 355 0.0 4.0 0.00 0.00 0.00 67 1019.9
20210804201213 74 355 0.0 9.0 0.00 0.00 0.00 67 1019.9
20210804200719 74 355 2.0 9.0 0.00 0.00 0.00 69 1019.9
20210804200217 74 17 1.0 4.0 0.00 0.00 0.00 66 1019.9
20210804195718 74 40 0.0 4.0 0.00 0.00 0.00 68 1019.9
20210804195217 75 40 1.0 4.0 0.00 0.00 0.00 67 1019.8
20210804194714 74 342 0.0 0.0 0.00 0.00 0.00 67 1019.8
20210804194223 75 342 0.0 1.0 0.00 0.00 0.00 66 1019.8
20210804193714 75 341 0.0 1.0 0.00 0.00 0.00 67 1019.9
20210804193211 75 341 0.0 0.0 0.00 0.00 0.00 66 1020.0
20210804192718 74 341 0.0 0.0 0.00 0.00 0.00 67 1020.2
20210804192216 74 335 0.0 2.0 0.00 0.00 0.00 66 1020.3
20210804191716 75 335 0.0 5.0 0.00 0.00 0.00 66 1020.4
20210804191213 76 217 0.0 5.0 0.00 0.00 0.00 65 1020.4
20210804190711 75 266 0.0 2.0 0.00 0.00 0.00 67 1020.5
20210804190218 75 307 0.0 1.0 0.00 0.00 0.00 71 1020.4
20210804185712 74 347 0.0 1.0 0.00 0.00 0.00 66 1020.6
20210804185214 74 347 0.0 1.0 0.00 0.00 0.00 67 1020.5
20210804184712 74 347 0.0 5.0 0.00 0.00 0.00 66 1020.7
20210804184219 74 347 1.0 5.0 0.00 0.00 0.00 67 1020.4
20210804183716 74 184 0.0 0.0 0.00 0.00 0.00 69 1020.9
20210804183225 74 184 0.0 0.0 0.00 0.00 0.00 68 1020.9
20210804182716 74 184 0.0 0.0 0.00 0.00 0.00 68 1021.1
20210804182213 73 184 0.0 1.0 0.00 0.00 0.00 68 1021.1
20210804181711 74 184 0.0 1.0 0.00 0.00 0.00 68 1021.0
20210804181218 73 188 0.0 0.0 0.00 0.00 0.00 67 1020.9
20210804180716 73 183 0.0 0.0 0.00 0.00 0.00 69 1021.0
20210804180225 74 183 0.0 2.0 0.00 0.00 0.00 68 1021.1
20210804175715 74 183 0.0 2.0 0.00 0.00 0.00 68 1021.2
20210804175212 73 183 0.0 0.0 0.00 0.00 0.00 69 1021.0
20210804174713 73 183 0.0 0.0 0.00 0.00 0.00 68 1021.0
20210804174220 73 184 0.0 0.0 0.00 0.00 0.00 69 1021.1
20210804173719 73 184 0.0 0.0 0.00 0.00 0.00 68 1021.2
20210804173218 73 184 0.0 4.0 0.00 0.00 0.00 67 1021.3
20210804172716 73 184 0.0 0.0 0.00 0.00 0.00 68 1021.3
20210804172213 74 184 0.0 2.0 0.00 0.00 0.00 66 1021.3
20210804171712 73 184 0.0 2.0 0.00 0.00 0.00 66 1021.2
20210804171213 73 321 0.0 0.0 0.00 0.00 0.00 70 1021.2
20210804170711 73 321 0.0 6.0 0.00 0.00 0.00 69 1021.2
20210804170220 73 321 0.0 6.0 0.00 0.00 0.00 67 1021.1
20210804165717 73 355 0.0 0.0 0.00 0.00 0.00 69 1021.1
20210804165211 73 355 0.0 0.0 0.00 0.00 0.00 70 1021.1
20210804164718 73 355 0.0 0.0 0.00 0.00 0.00 69 1021.1
20210804164216 73 355 0.0 0.0 0.00 0.00 0.00 68 1021.0
20210804163713 73 355 0.0 0.0 0.00 0.00 0.00 70 1021.0
20210804163222 73 355 0.0 0.0 0.00 0.00 0.00 69 1021.0
20210804162713 73 355 0.0 0.0 0.00 0.00 0.00 71 1021.0
20210804162210 72 355 0.0 1.0 0.00 0.00 0.00 71 1020.9
20210804161718 72 355 0.0 1.0 0.00 0.00 0.00 71 1020.9
20210804161216 73 355 0.0 0.0 0.00 0.00 0.00 71 1020.9
20210804160715 73 355 0.0 3.0 0.00 0.00 0.00 69 1020.9
20210804160212 73 355 1.0 4.0 0.00 0.00 0.00 71 1020.9
20210804155711 73 337 0.0 4.0 0.00 0.00 0.00 71 1020.9
20210804155217 72 338 0.0 0.0 0.00 0.00 0.00 75 1020.9
20210804154714 72 337 0.0 0.0 0.00 0.00 0.00 73 1020.9
20210804154215 72 337 0.0 0.0 0.00 0.00 0.00 75 1020.8
20210804153713 72 337 0.0 0.0 0.00 0.00 0.00 74 1020.9
20210804153210 71 337 0.0 0.0 0.00 0.00 0.00 75 1020.9
20210804152718 71 337 0.0 0.0 0.00 0.00 0.00 76 1020.9
20210804152217 71 337 0.0 0.0 0.00 0.00 0.00 75 1020.9
20210804151715 71 337 0.0 4.0 0.00 0.00 0.00 76 1020.9
20210804151212 71 337 1.0 4.0 0.00 0.00 0.00 76 1021.0
20210804150721 71 337 0.0 0.0 0.00 0.00 0.00 76 1021.0
20210804150215 71 337 0.0 0.0 0.00 0.00 0.00 76 1021.0
20210804145712 71 337 0.0 0.0 0.00 0.00 0.00 75 1021.0
20210804145212 71 337 0.0 0.0 0.00 0.00 0.00 76 1020.9
20210804144720 71 337 0.0 0.0 0.00 0.00 0.00 74 1020.9
20210804144213 71 337 0.0 0.0 0.00 0.00 0.00 75 1020.8
20210804143717 71 337 0.0 0.0 0.00 0.00 0.00 74 1020.8
20210804143217 70 337 0.0 0.0 0.00 0.00 0.00 74 1021.0
20210804142714 70 337 0.0 0.0 0.00 0.00 0.00 73 1020.9
20210804142216 70 337 0.0 0.0 0.00 0.00 0.00 72 1020.8
20210804141713 70 339 0.0 0.0 0.00 0.00 0.00 75 1020.8
20210804141214 70 340 0.0 0.0 0.00 0.00 0.00 75 1020.8
20210804140712 70 340 0.0 0.0 0.00 0.00 0.00 73 1020.9
20210804140218 70 340 0.0 0.0 0.00 0.00 0.00 73 1020.8
20210804135716 69 339 0.0 0.0 0.00 0.00 0.00 73 1020.7
20210804135217 69 339 0.0 0.0 0.00 0.00 0.00 74 1020.7
20210804134716 69 339 0.0 0.0 0.00 0.00 0.00 76 1020.8
20210804134221 69 339 0.0 0.0 0.00 0.00 0.00 76 1020.7
20210804133718 68 339 327.0 0.0 0.00 0.00 0.00 76 1020.7
20210804040712 64 335 0.0 0.0 0.00 0.00 0.00 90 1019.9
20210804040221 64 335 0.0 0.0 0.00 0.00 0.00 90 1019.8
20210804035712 64 335 0.0 0.0 0.00 0.00 0.00 90 1019.8
20210804035219 64 335 0.0 0.0 0.00 0.00 0.00 89 1019.8
20210804034716 64 335 0.0 0.0 0.00 0.00 0.00 89 1019.9
20210804034214 64 335 0.0 0.0 0.00 0.00 0.00 89 1019.7
20210804033714 64 335 0.0 0.0 0.00 0.00 0.00 89 1019.7
20210804033211 65 335 0.0 0.0 0.00 0.00 0.00 89 1019.9
20210804032719 65 335 0.0 0.0 0.00 0.00 0.00 89 1019.7
20210804032215 65 335 0.0 0.0 0.00 0.00 0.00 89 1019.7
20210804031713 64 335 0.0 0.0 0.00 0.00 0.00 88 1019.8
20210804031214 65 335 0.0 0.0 0.00 0.00 0.00 88 1019.9
20210804030713 65 335 0.0 0.0 0.00 0.00 0.00 88 1020.0
20210804030219 65 335 0.0 0.0 0.00 0.00 0.00 88 1019.9
20210804025716 64 335 0.0 0.0 0.00 0.00 0.00 88 1019.7
20210804025217 65 335 0.0 0.0 0.00 0.00 0.00 87 1019.7
20210804024715 65 335 0.0 0.0 0.00 0.00 0.00 87 1019.5
20210804024212 65 335 0.0 0.0 0.00 0.00 0.00 88 1019.5
20210804023723 65 335 0.0 0.0 0.00 0.00 0.00 87 1019.6
20210804023213 66 335 0.0 0.0 0.00 0.00 0.00 88 1019.7
20210804022710 66 335 0.0 0.0 0.00 0.00 0.00 87 1019.7
20210804022218 66 335 0.0 0.0 0.00 0.00 0.00 87 1019.8
20210804021717 66 335 0.0 0.0 0.00 0.00 0.00 86 1019.7
20210804021216 66 335 0.0 0.0 0.00 0.00 0.00 86 1019.6
20210804020713 66 335 0.0 0.0 0.00 0.00 0.00 86 1019.6
20210804020211 67 335 0.0 0.0 0.00 0.00 0.00 86 1019.6
20210804015717 67 335 0.0 0.0 0.00 0.00 0.00 85 1019.5
20210804015215 67 335 0.0 0.0 0.00 0.00 0.00 84 1019.6
20210804014716 67 335 0.0 0.0 0.00 0.00 0.00 82 1019.5
20210804014214 67 335 0.0 0.0 0.00 0.00 0.00 82 1019.5
20210804013720 67 335 0.0 0.0 0.00 0.00 0.00 81 1019.4
20210804013210 67 335 0.0 0.0 0.00 0.00 0.00 81 1019.4
20210804012716 67 335 0.0 0.0 0.00 0.00 0.00 81 1019.5
20210804012215 67 335 0.0 0.0 0.00 0.00 0.00 81 1019.5
20210804011715 67 335 0.0 0.0 0.00 0.00 0.00 80 1019.4
20210804011213 67 335 0.0 0.0 0.00 0.00 0.00 79 1019.3
20210804010719 68 335 0.0 0.0 0.00 0.00 0.00 79 1019.2
20210804010217 68 335 0.0 0.0 0.00 0.00 0.00 79 1019.3